• MPC Preparation (Info)

  • MPEC 2005-A29 : 2005 AV3

    The following Minor Planet Electronic Circular may be linked-to from your own Web pages, but must not otherwise be redistributed electronically.

    A form allowing access to any MPEC is at the bottom of this page.


    Read MPEC 2005-A28 Read MPEC 2005-A30


    M.P.E.C. 2005-A29                                Issued 2005 Jan. 8, 15:06 UT
    
         The Minor Planet Electronic Circulars contain information on unusual
             minor planets and routine data on comets.  They are published
       on behalf of Commission 20 of the International Astronomical Union by the
              Minor Planet Center, Smithsonian Astrophysical Observatory,
                              Cambridge, MA 02138, U.S.A.
    
                      Supported in part by the Brinson Foundation
                 Prepared using the Tamkin Foundation Computer Network
    
                                  MPC@CFA.HARVARD.EDU
              URL http://cfa-www.harvard.edu/iau/mpc.html  ISSN 1523-6714
    
                                       2005 AV3
    
    Observations:
         K05A03V* C2005 01 07.38163 08 55 30.94 +10 43 34.6          19.5 R EA029703
         K05A03V  C2005 01 07.38697 08 55 30.37 +10 43 46.2          20.0 R EA029703
         K05A03V  C2005 01 07.39230 08 55 29.81 +10 43 56.7          20.4 R EA029703
         K05A03V  C2005 01 07.39763 08 55 29.28 +10 44 07.0          19.5 R EA029703
         K05A03V  C2005 01 07.96282 08 54 37.62 +11 02 28.8          20.2 R EA029599
         K05A03V  C2005 01 07.97275 08 54 36.66 +11 02 48.3          20.0 R EA029599
         K05A03V  C2005 01 07.98251 08 54 35.61 +11 03 04.9                 EA029246
         K05A03V  C2005 01 07.98268 08 54 35.65 +11 03 07.3          19.3 R EA029599
         K05A03V  C2005 01 07.98330 08 54 35.55 +11 03 06.8                 EA029246
         K05A03V  C2005 01 07.98411 08 54 35.40 +11 03 08.8                 EA029246
         K05A03V  C2005 01 07.98698 08 54 35.30 +11 03 11.8                 EA029246
         K05A03V  C2005 01 07.99261 08 54 34.74 +11 03 27.7          20.1 R EA029599
         K05A03V  C2005 01 08.39050 08 53 57.36 +11 16 25.3          19.9 R EA029448
         K05A03V  C2005 01 08.40158 08 53 56.27 +11 16 46.1          20.4 R EA029448
         K05A03V  C2005 01 08.41315 08 53 55.14 +11 17 08.2          21.1 R EA029448
    
    Observer details:
    246 Klet Observatory-KLENOT.  Observers M. Tichy, J. Ticha.  Measurer M. Tichy.
        1.06-m KLENOT Telescope + CCD.
    448 Desert Moon Observatory.  Observer B. L. Stevens.  0.3-m
        Schmidt-Cassegrain + CCD.
    599 Campo Imperatore-CINEOS.  Observers A. Boattini, A. Di Paola.  Measurers
        A. Boattini, E. Dotto.  0.60-m f/3.1 Schmidt + CCD.
    703 Catalina Sky Survey.  Observer S. M. Larson.  Measurers E. C. Beshore,
        C. M. Casey, E. J. Christensen, G. J. Garradd, R. E. Hill, S. M. Larson,
        R. H. McNaught.  0.68-m Schmidt + CCD.
    
    Orbital elements:
    2005 AV3
    Epoch 2004 Dec. 21.0 TT = JDT 2453360.5                 MPC
    M  21.44617              (2000.0)            P               Q
    n   0.29237071     Peri.  265.48495     +0.83783671     -0.50323616
    a   2.2482614      Node   124.58510     +0.54419668     +0.80067266
    e   0.5654880      Incl.   14.89472     -0.04335456     +0.32507947
    P   3.37           H   20.1           G   0.15
    From 14 observations 2005 Jan. 7-8.
    
    Ephemeris:
    2005 AV3                 a,e,i = 2.25, 0.57, 15                  q = 0.9769
    Date    TT    R. A. (2000) Decl.     Delta      r     Elong.  Phase     V
    2004 12 31    09 06.01   +06 40.8    0.499    1.409   141.6    25.7    20.5
    2005 01 10    08 51.44   +12 08.4    0.531    1.488   157.3    14.8    20.4
    2005 01 20    08 35.48   +17 08.7    0.585    1.566   173.0     4.4    20.3
    2005 01 30    08 21.19   +21 11.7    0.663    1.645   172.3     4.6    20.7
    2005 02 09    08 10.67   +24 08.5    0.765    1.722   159.0    11.9    21.4
    2005 02 19    08 04.85   +26 05.9    0.887    1.799   147.1    17.4    22.0
    
    Timothy B. Spahr             (C) Copyright 2005 MPC           M.P.E.C. 2005-A29
    

    Read MPEC 2005-A28 Read MPEC 2005-A30


    MPEC number:

    Enter an MPEC number in one of the following forms:

    • 1997-B01 (the full form)
    • J97B01 (the packed version of the full form)
    • B01 (the abbreviated form)